スキッフ彗星

223P/Skiff (2010)

English version
Home page
Updated on March 24, 2013

---------------------------------------------------------------------

・ プロフィール

符号 223P/2009 L18
検出日 2009年6月15日、8月18日
検出光度 20.0等、19.6等
検出者 G. Sostero, E. Guido, P. Camilleri and E. Prosperi (Skylive-Grove Creek Observatory, near Trunkey, NSW, Australia)

・ 写真集

・ 軌道要素

Epoch 2010 Sept. 1.0 TT = JDT 2455440.5
T 2010 Aug. 14.51767 TT                                 MPC
q   2.4200690            (2000.0)            P               Q
n   0.11657960     Peri.   37.84792     +0.89340455     -0.43712667
a   4.1500597      Node   346.82455     +0.21199182     +0.61366121
e   0.4168592      Incl.   27.05520     +0.39609062     +0.65752581
P   8.45
From 297 observations 2001 July 27-2010 Dec. 15, mean residual 0".5.

・ 星図

・ 光度変化

        m1 = 13.5 + 5 logΔ + 7.0 log r(t - 150)

---------------------------------------------------------------------

軌道要素はM.P.E.C. 2010-Y12に掲載されたものです。
星図はステラナビゲータ Ver.8 (アストロアーツ) で作成したものです。
光度グラフはComet for Windowsで作成したものです。

---------------------------------------------------------------------

Copyright(C) Seiichi Yoshida (comet@aerith.net). All rights reserved.